• In Spain
  • List of Countries
  • For 7 days
  • Water Temperature
  • Satellite Maps
  • Weather Map
  • Weather Widgets
  • user-avatar
    Login

    Hourly Weather Varvarinka

    Today, 25 September, Tuesday

    Time Temperature Precipitation Wind Pressure Humidity
    00:00 +10°C° 0.1 mm 8 mps 731 mmHg 86%
    01:00 +9°C° 0 mm 8 mps 731 mmHg 85%
    02:00 +8°C° 0 mm 7 mps 731 mmHg 85%
    03:00 +8°C° 0 mm 7 mps 731 mmHg 84%
    04:00 +6°C° 0 mm 7 mps 732 mmHg 84%
    05:00 +6°C° 0 mm 7 mps 732 mmHg 84%
    06:00 +7°C° 0 mm 6 mps 732 mmHg 84%
    07:00 +6°C° 0 mm 7 mps 733 mmHg 83%
    08:00 +6°C° 0 mm 7 mps 733 mmHg 82%
    09:00 +6°C° 0 mm 7 mps 733 mmHg 81%
    10:00 +8°C° 0.1 mm 7 mps 734 mmHg 78%
    11:00 +8°C° 0.1 mm 7 mps 735 mmHg 75%
    12:00 +9°C° 0.1 mm 8 mps 735 mmHg 72%
    13:00 +9°C° 0.1 mm 7 mps 736 mmHg 72%
    14:00 +8°C° 0.1 mm 7 mps 736 mmHg 72%
    15:00 +8°C° 0.1 mm 7 mps 737 mmHg 71%
    16:00 +8°C° 0 mm 7 mps 738 mmHg 72%
    17:00 +7°C° 0 mm 6 mps 738 mmHg 72%
    18:00 +7°C° 0 mm 6 mps 739 mmHg 73%
    19:00 +5°C° 0 mm 6 mps 739 mmHg 74%
    20:00 +6°C° 0 mm 5 mps 740 mmHg 74%
    21:00 +6°C° 0 mm 5 mps 740 mmHg 75%
    22:00 +6°C° 0 mm 5 mps 741 mmHg 76%
    23:00 +6°C° 0 mm 5 mps 741 mmHg 76%

    Tomorrow, 26 September, Wednesday

    Time Temperature Precipitation Wind Pressure Humidity
    00:00 +5°C° 0 mm 5 mps 742 mmHg 77%
    01:00 +5°C° 0 mm 5 mps 742 mmHg 79%
    02:00 +3°C° 0 mm 5 mps 743 mmHg 81%
    03:00 +4°C° 0 mm 4 mps 744 mmHg 83%
    04:00 +4°C° 0 mm 4 mps 744 mmHg 84%
    05:00 +3°C° 0 mm 4 mps 745 mmHg 85%
    06:00 +3°C° 0 mm 4 mps 745 mmHg 86%
    07:00 +2°C° 0 mm 5 mps 746 mmHg 83%
    08:00 +3°C° 0 mm 5 mps 746 mmHg 79%
    09:00 +3°C° 0 mm 5 mps 747 mmHg 75%
    10:00 +5°C° 0 mm 5 mps 747 mmHg 70%
    11:00 +6°C° 0 mm 5 mps 748 mmHg 66%
    12:00 +7°C° 0 mm 5 mps 748 mmHg 61%
    13:00 +8°C° 0 mm 5 mps 748 mmHg 58%
    14:00 +8°C° 0 mm 5 mps 748 mmHg 56%
    15:00 +9°C° 0 mm 5 mps 748 mmHg 53%
    16:00 +8°C° 0 mm 4 mps 748 mmHg 57%
    17:00 +8°C° 0 mm 3 mps 748 mmHg 60%
    18:00 +7°C° 0 mm 3 mps 748 mmHg 64%
    19:00 +7°C° 0 mm 3 mps 748 mmHg 65%
    20:00 +5°C° 0 mm 3 mps 748 mmHg 67%
    21:00 +4°C° 0 mm 3 mps 748 mmHg 68%
    22:00 +4°C° 0 mm 4 mps 747 mmHg 70%
    23:00 +3°C° 0 mm 5 mps 747 mmHg 71%

    Day after tomorrow, 27 September, Thursday

    Time Temperature Precipitation Wind Pressure Humidity
    00:00 +3°C° 0 mm 5 mps 746 mmHg 72%
    01:00 +4°C° 0 mm 6 mps 746 mmHg 70%
    02:00 +4°C° 0 mm 7 mps 745 mmHg 67%
    03:00 +4°C° 0 mm 7 mps 744 mmHg 65%
    04:00 +4°C° 0.3 mm 8 mps 743 mmHg 67%
    05:00 +3°C° 0.3 mm 9 mps 742 mmHg 69%
    06:00 +3°C° 0.3 mm 9 mps 741 mmHg 71%
    07:00 +3°C° 0.7 mm 10 mps 741 mmHg 74%
    08:00 +3°C° 0.7 mm 10 mps 740 mmHg 78%
    09:00 +3°C° 0.7 mm 10 mps 739 mmHg 81%
    10:00 +5°C° 0.3 mm 10 mps 739 mmHg 83%
    11:00 +5°C° 0.3 mm 9 mps 739 mmHg 84%
    12:00 +6°C° 0.3 mm 9 mps 738 mmHg 85%
    13:00 +6°C° 0.3 mm 9 mps 738 mmHg 86%
    14:00 +6°C° 0.3 mm 8 mps 738 mmHg 87%
    15:00 +7°C° 0.3 mm 8 mps 738 mmHg 87%
    16:00 +7°C° 0.3 mm 8 mps 738 mmHg 88%
    17:00 +8°C° 0.3 mm 7 mps 738 mmHg 88%
    18:00 +9°C° 0.3 mm 7 mps 739 mmHg 88%
    19:00 +8°C° 0.1 mm 6 mps 739 mmHg 88%
    20:00 +8°C° 0.1 mm 5 mps 740 mmHg 88%
    21:00 +7°C° 0.1 mm 4 mps 740 mmHg 88%
    22:00 +7°C° 0 mm 4 mps 741 mmHg 88%
    23:00 +6°C° 0 mm 4 mps 741 mmHg 89%

    28 September, Friday

    Time Temperature Precipitation Wind Pressure Humidity
    00:00 +6°C° 0 mm 4 mps 741 mmHg 89%
    01:00 +5°C° 0 mm 4 mps 742 mmHg 90%
    02:00 +5°C° 0 mm 4 mps 742 mmHg 90%
    03:00 +4°C° 0 mm 4 mps 742 mmHg 90%
    04:00 +4°C° 0 mm 4 mps 742 mmHg 91%
    05:00 +4°C° 0 mm 3 mps 742 mmHg 91%
    06:00 +4°C° 0 mm 3 mps 742 mmHg 92%
    07:00 +5°C° 0 mm 4 mps 742 mmHg 85%
    08:00 +6°C° 0 mm 5 mps 741 mmHg 79%
    09:00 +8°C° 0 mm 6 mps 741 mmHg 73%
    10:00 +9°C° 0 mm 7 mps 741 mmHg 74%
    11:00 +11°C° 0 mm 8 mps 740 mmHg 76%
    12:00 +12°C° 0 mm 9 mps 740 mmHg 77%
    13:00 +12°C° 0 mm 8 mps 739 mmHg 78%
    14:00 +12°C° 0 mm 8 mps 739 mmHg 80%
    15:00 +12°C° 0 mm 8 mps 738 mmHg 81%
    16:00 +12°C° 0 mm 8 mps 738 mmHg 82%
    17:00 +12°C° 0 mm 8 mps 737 mmHg 82%
    18:00 +12°C° 0 mm 8 mps 737 mmHg 83%
    19:00 +12°C° 0.6 mm 8 mps 737 mmHg 84%
    20:00 +13°C° 0.6 mm 8 mps 737 mmHg 85%
    21:00 +13°C° 0.6 mm 8 mps 736 mmHg 86%
    22:00 +12°C° 0.3 mm 7 mps 737 mmHg 85%
    23:00 +11°C° 0.3 mm 6 mps 738 mmHg 85%

    29 September, Saturday

    Time Temperature Precipitation Wind Pressure Humidity
    00:00 +10°C° 0.3 mm 6 mps 738 mmHg 84%
    01:00 +8°C° 0 mm 5 mps 739 mmHg 86%
    02:00 +7°C° 0 mm 4 mps 740 mmHg 88%
    03:00 +5°C° 0 mm 4 mps 740 mmHg 90%
    04:00 +5°C° 0 mm 3 mps 741 mmHg 91%
    05:00 +4°C° 0 mm 3 mps 742 mmHg 92%
    06:00 +4°C° 0 mm 2 mps 742 mmHg 92%
    07:00 +4°C° 0 mm 3 mps 743 mmHg 87%
    08:00 +4°C° 0 mm 3 mps 743 mmHg 82%
    09:00 +5°C° 0 mm 3 mps 744 mmHg 76%
    10:00 +7°C° 0 mm 2 mps 744 mmHg 68%
    11:00 +8°C° 0 mm 2 mps 744 mmHg 59%
    12:00 +9°C° 0 mm 2 mps 745 mmHg 51%
    13:00 +9°C° 0 mm 2 mps 745 mmHg 48%
    14:00 +9°C° 0 mm 2 mps 745 mmHg 46%
    15:00 +10°C° 0 mm 2 mps 745 mmHg 43%
    16:00 +9°C° 0 mm 2 mps 745 mmHg 47%
    17:00 +9°C° 0 mm 2 mps 745 mmHg 50%
    18:00 +8°C° 0 mm 2 mps 745 mmHg 54%
    19:00 +7°C° 0 mm 2 mps 746 mmHg 56%
    20:00 +6°C° 0 mm 2 mps 746 mmHg 58%
    21:00 +5°C° 0 mm 2 mps 747 mmHg 59%
    22:00 +6°C° 0 mm 1 mps 747 mmHg 61%
    23:00 +6°C° 0 mm 1 mps 747 mmHg 63%

    30 September, Sunday

    Time Temperature Precipitation Wind Pressure Humidity
    00:00 +5°C° 0 mm 1 mps 747 mmHg 65%
    01:00 +5°C° 0 mm 1 mps 748 mmHg 66%
    02:00 +4°C° 0 mm 2 mps 748 mmHg 68%
    03:00 +3°C° 0 mm 2 mps 749 mmHg 70%
    04:00 +3°C° 0 mm 2 mps 749 mmHg 72%
    05:00 +3°C° 0 mm 2 mps 749 mmHg 74%
    06:00 +3°C° 0 mm 2 mps 750 mmHg 76%
    07:00 +4°C° 0 mm 2 mps 750 mmHg 74%
    08:00 +5°C° 0 mm 2 mps 750 mmHg 72%
    09:00 +6°C° 0 mm 2 mps 751 mmHg 70%
    10:00 +7°C° 0 mm 2 mps 751 mmHg 66%
    11:00 +8°C° 0 mm 2 mps 751 mmHg 62%
    12:00 +9°C° 0 mm 2 mps 751 mmHg 58%
    13:00 +10°C° 0 mm 1 mps 751 mmHg 56%
    14:00 +10°C° 0 mm 1 mps 751 mmHg 54%
    15:00 +11°C° 0 mm 1 mps 750 mmHg 52%
    16:00 +9°C° 0 mm 0 mps 750 mmHg 55%
    17:00 +8°C° 0 mm 0 mps 750 mmHg 57%
    18:00 +8°C° 0 mm 0 mps 750 mmHg 60%
    19:00 +7°C° 0 mm 0 mps 750 mmHg 61%
    20:00 +7°C° 0 mm 0 mps 750 mmHg 62%
    21:00 +7°C° 0 mm 1 mps 751 mmHg 63%
    22:00 +7°C° 0 mm 1 mps 750 mmHg 65%
    23:00 +6°C° 0 mm 1 mps 750 mmHg 67%
    Show more